sat.trackr.live / text

‹ back to catalog

STARLINK-11631 [DTC]

NORAD 63195 · 2025-048N

PAYLOAD ACTIVE UNKNOWN

§ Identity

Operator
Country
US
Launch date
2025-03-13
Launch site
AFETR
Launch vehicle
Mass (kg)
RCS (m²)

Purposes: comms

External: N2YO · Heavens-Above · Gunter

§ Orbital elements

Epoch: 2026-05-24T21:51:44.873856Z

Period
91.67 min
Inclination
43.0050°
Eccentricity
0.0001850
Mean motion
15.70876001 rev/d
Perigee alt
355.1 km
Apogee alt
357.6 km
Semi-major
6,734.5 km
B*
1.2731e-3
RAAN
220.9125°
Arg perigee
44.9685°
Mean anomaly
315.1333°
Rev number
7,050

§ Raw data

STARLINK-11631 [DTC]1 63195U 25048N   26144.91093604  .00166476  00000+0  12731-2 0  99972 63195  43.0050 220.9125 0001850  44.9685 315.1333 15.70876001 70505

JSON: /api/v1/satellites/63195 · /tle

For live sub-satellite position, see the globe view (requires WebGL).

§ Visibility from observer

Set your observer location to see the next 7 days of passes ≥ 10°. The values pass through the URL so the page stays shareable.

No JS? Fill the form by hand. The geolocation button needs JavaScript.